Aswan, Egypt

4:26 PM EET on April 24, 2017 (GMT +0200)
Aswan International

Weather History for HESN - July, 2013

Change the Weather History Date:

Tuesday, July 23, 2013

  Actual Average Record
Temperature  
Mean Temperature 90 °F -  
Max Temperature 103 °F 105 °F 111 °F (2001)
Min Temperature 77 °F 82 °F 77 °F (2013)
Cooling Degree Days 25    
Growing Degree Days 40 (Base 50)    
Moisture  
Dew Point 40 °F    
Average Humidity 16    
Maximum Humidity 28    
Minimum Humidity 5    
Precipitation  
Precipitation 0.00 in 0.00 in - ()
Sea Level Pressure  
Sea Level Pressure 29.67 in    
Wind  
Wind Speed 7 mph ()    
Max Wind Speed 14 mph    
Max Gust Speed -    
Visibility 6.0 miles    
Events      
Averages and records for this station are not official NWS values.
T = Trace of Precipitation, MM = Missing Value Source: Averaged Metar Reports

Daily Weather History Graph

Daily Weather History Graph

Search for Another Location

Airport or City:

Trip Planner

Search our weather history database for the weather conditions in past years. The results will help you decide how hot, cold, wet, or windy it might be!

Date:

Astronomy

Jul. 23, 2013 Rise Set
Actual Time 5:14 AM EET 6:36 PM EET
Civil Twilight 4:49 AM EET 7:01 PM EET
Nautical Twilight 4:19 AM EET 7:30 PM EET
Astronomical Twilight 3:49 AM EET 8:00 PM EET
Moon 7:05 PM EET (7/23) 5:47 AM EET (7/23)
Length of Visible Light 14h 11m
Length of Day
13h 22m
Full, 99% of the Moon is Illuminated
Jul 23
Full
Jul 29
Last Quarter
Aug 6
New
Aug 14
First Quarter
Aug 21
Full

Hourly Weather History & Observations

Time (EET) Temp. Dew Point Humidity Pressure Visibility Wind Dir Wind Speed Gust Speed Precip Events Conditions
12:00 AM 84.2 °F 37.4 °F 19% 29.65 in - WNW 9.2 mph - N/A   Clear
1:00 AM 84.2 °F 39.2 °F 20% 29.65 in - WNW 9.2 mph - N/A   Clear
2:00 AM 81 °F 39 °F 13% 29.61 in 6 mi WNW 6.9 mph - -  
2:00 AM 80.6 °F 39.2 °F 23% 29.62 in - WNW 6.9 mph - N/A   Clear
3:00 AM 80.6 °F 39.2 °F 23% 29.62 in - WNW 6.9 mph - N/A   Clear
4:00 AM 78.8 °F 39.2 °F 24% 29.62 in - WNW 5.8 mph - N/A   Clear
5:00 AM 78.8 °F 41.0 °F 26% 29.62 in - NW 5.8 mph - N/A   Clear
6:00 AM 78.8 °F 42.8 °F 28% 29.65 in - NW 4.6 mph - N/A   Clear
7:00 AM 82.4 °F 44.6 °F 26% 29.68 in - NNW 5.8 mph - N/A   Clear
8:00 AM 86 °F 47 °F 17% 29.75 in 6 mi NNW 9.2 mph - -  
8:00 AM 86.0 °F 48.2 °F 27% 29.68 in - NNW 9.2 mph - N/A   Clear
9:00 AM 89.6 °F 51.8 °F 27% 29.71 in - North 10.4 mph - N/A   Clear
10:00 AM 93.2 °F 50.0 °F 23% 29.71 in - North 9.2 mph - N/A   Clear
11:00 AM 95.0 °F 46.4 °F 19% 29.71 in - North 9.2 mph - N/A   Clear
12:00 PM 98.6 °F 42.8 °F 15% 29.68 in - NW 6.9 mph - N/A   Clear
1:00 PM 102.2 °F 42.8 °F 13% 29.68 in - North 9.2 mph - N/A   Clear
2:00 PM 101 °F 42 °F 7% 29.63 in 6 mi North 6.9 mph - -  
2:00 PM 102.2 °F 41.0 °F 12% 29.68 in - North 6.9 mph - N/A   Clear
3:00 PM 102.2 °F 35.6 °F 10% 29.65 in - NW 8.1 mph - N/A   Clear
4:00 PM 102.2 °F 35.6 °F 10% 29.65 in - WNW 11.5 mph - N/A   Clear
5:00 PM 102.2 °F 33.8 °F 9% 29.65 in - WNW 11.5 mph - N/A   Clear
5:19 PM 102.2 °F 33.8 °F 9% 29.65 in - WNW 11.5 mph - N/A   Clear
6:00 PM 102.2 °F 35.6 °F 10% 29.65 in - WNW 13.8 mph - N/A   Clear
7:00 PM 100.4 °F 35.6 °F 11% 29.65 in - WNW 13.8 mph - N/A   Clear
8:00 PM 96 °F 33 °F 5% 29.65 in 6 mi NW 5.8 mph - -  
8:00 PM 95.0 °F 32.0 °F 11% 29.68 in - NW 5.8 mph - N/A   Clear
9:00 PM 93.2 °F 33.8 °F 12% 29.71 in - NW 5.8 mph - N/A   Clear
10:00 PM 89.6 °F 32.0 °F 13% 29.74 in - WNW 10.4 mph - N/A   Clear
11:00 PM 87.8 °F 33.8 °F 15% 29.74 in - WNW 10.4 mph - N/A   Clear